Regional Weather Roundup
Issued by NWS

Home | Current Version | Previous Version | Graphics & Text | Print | Product List | Glossary On
Versions: 1 2 3 4 5 6 7 8 9 10 11 12 13 14 15 16 17 18 19 20 21 22 23 24 25 26 27
000
ASUS45 KSLC 280910
RWRUT

UTAH REGIONAL WEATHER ROUNDUP
NATIONAL WEATHER SERVICE SALT LAKE CITY UT
300 AM MDT WED SEP 28 2016

UTZ001>011-023>025-281000-

NORTHERN UTAH

CITY           SKY/WX    TMP DP  RH WIND       PRES   REMARKS
BRIGHAM CITY     N/A     51  48  89 CALM      30.16R
HILL AFB       CLEAR     58  43  56 E14       30.17R
LOGAN          CLEAR     49  46  90 S3        30.17S
OGDEN          CLEAR     58  44  60 S9        30.15R
PROVO AIRPORT  CLEAR     55  42  61 SE3       30.18R
SALT LAKE CITY CLEAR     56  49  77 SE8       30.14S
VERNAL         CLEAR     49  43  80 NW7       30.24R
WENDOVER       PTCLDY    54  43  66 CALM      30.16R
HEBER CITY     CLEAR     43  37  81 CALM      30.25R
WEST JORDAN    CLEAR     57  44  62 SW3       30.17S

$$

UTZ012>022-026-027-281000-

SOUTHERN/CENTRAL UTAH

CITY           SKY/WX    TMP DP  RH WIND       PRES   REMARKS
BLANDING       CLEAR     55  33  43 CALM      30.32R
BRYCE CANYON   PTCLDY    38  34  85 W7        30.36R WCI  33
CEDAR CITY     PTCLDY    50  33  52 NE6       30.21R
DELTA          CLEAR     48  45  87 SE5       30.16R
MILFORD        CLEAR     50  35  56 S5        30.19R
MOAB/CYNLANDS  CLEAR     54  38  54 SW3       30.15R
PRICE          CLEAR     52  37  56 NE6       30.23S
ST GEORGE      SUNNY     68  41  37 S5        30.08R

$$

REGIONAL REPORTS     COLORADO/ARIZONA

CITY           SKY/WX    TMP DP  RH WIND       PRES   REMARKS
CRAIG, CO      CLOUDY    37  33  85 CALM      30.31S
GRAND JUNCTION CLEAR     55  37  50 SE8       30.19S
RIFLE          CLEAR     48  40  73 CALM      30.27R
MONTROSE       CLOUDY    50  37  61 SE8       30.28S
CORTEZ         CLEAR     42  36  79 SE3       30.27R
PAGE, AZ       PTCLDY    66  41  40 NW3       30.15S
GRAND CANYON   CLOUDY    56  42  59 CALM      30.27F
KINGMAN        PTCLDY    59  47  64 S9        30.08R
FLAGSTAFF      PTCLDY    43  43 100 CALM      30.29S

$$

REGIONAL REPORTS    NEVADA/IDAHO/WYOMING

CITY           SKY/WX    TMP DP  RH WIND       PRES   REMARKS
LAS VEGAS, NV  PTCLDY    75  42  30 N3        29.99R
ELY            CLEAR     41  29  62 S8        30.26R
ELKO           CLEAR     46  39  76 SW3       30.15S
POCATELLO, ID  CLEAR     48  44  86 CALM      30.17S
BURLEY         CLEAR     48  45  89 W5        30.11R
EVANSTON, WY   CLOUDY    50  36  58 SE8       30.32S
ROCK SPRINGS   CLOUDY    52  36  54 CALM      30.32R

$$




USA.gov is the U.S. government's official web portal to all federal, state and local government web resources and services.